sat.trackr.live / text

‹ back to catalog

STARLINK-31308

NORAD 59153 · 2024-044B

PAYLOAD ACTIVE UNKNOWN

§ Identity

Operator
Country
US
Launch date
2024-03-04
Launch site
AFETR
Launch vehicle
Mass (kg)
RCS (m²)

Purposes: comms

External: N2YO · Heavens-Above · Gunter

§ Orbital elements

Epoch: 2026-05-24T20:13:36.142752Z

Period
94.27 min
Inclination
43.0034°
Eccentricity
0.0001346
Mean motion
15.27592649 rev/d
Perigee alt
482.1 km
Apogee alt
483.9 km
Semi-major
6,861.1 km
B*
6.9129e-5
RAAN
350.1237°
Arg perigee
274.6941°
Mean anomaly
85.3757°
Rev number
12,579

§ Raw data

STARLINK-313081 59153U 24044B   26144.84277943  .00001641  00000+0  69129-4 0  99902 59153  43.0034 350.1237 0001346 274.6941  85.3757 15.27592649125796

JSON: /api/v1/satellites/59153 · /tle

For live sub-satellite position, see the globe view (requires WebGL).

§ Visibility from observer

Set your observer location to see the next 7 days of passes ≥ 10°. The values pass through the URL so the page stays shareable.

No JS? Fill the form by hand. The geolocation button needs JavaScript.